Location: Gro�bocka
(50.8204°N, 11.9702°E)
Time: 01:20:32
(UTC+00:00)

Cosmos 2360 - Pass Details

Date: 29 October 2020
Orbit: 847 x 855 km, 70.8° (Epoch: 23 November)

Event Time Altitude Azimuth Distance (km) Brightness Sun altitude
Rises 17:53:37 0° 196° (SSW) 3,413 7.5 -19.7°
Reaches altitude 10° 17:56:05 10° 193° (SSW) 2,480 6.7 -20.1°
Maximum altitude 18:01:42 62° 114° (ESE) 962 4.2 -21.0°
Enters shadow 18:04:35 29° 44° (NE) 1,525 5.2 -21.5°
